Time,TemperatureF,DewpointF,PressureIn,WindDirection,WindDirectionDegrees,WindSpeedMPH,WindSpeedGustMPH,Humidity,HourlyPrecipIn,Conditions,Clouds,dailyrainin,SoftwareType,DateUTC
2013-09-20 00:02:00,55.9,54.8,29.68,NNE,31,0.0,0.0,96,0.00,CLR,,0.00,WeatherDisplay:10.37,2013-09-20 07:02:00,
2013-09-20 00:07:00,55.4,54.3,29.68,NNE,31,0.0,0.0,96,0.00,CLR,,0.00,WeatherDisplay:10.37,2013-09-20 07:07:00,
2013-09-20 00:12:00,55.1,54.0,29.69,NNE,31,0.0,0.0,96,0.00,CLR,,0.00,WeatherDisplay:10.37,2013-09-20 07:12:00,
2013-09-20 00:17:00,54.8,53.7,29.68,NNE,31,0.0,0.0,96,0.00,CLR,,0.00,WeatherDisplay:10.37,2013-09-20 07:17:00,
2013-09-20 00:22:00,54.8,53.7,29.68,NNE,31,0.0,0.0,96,0.00,CLR,,0.00,WeatherDisplay:10.37,2013-09-20 07:22:00,
2013-09-20 00:27:00,54.7,53.6,29.68,NNE,31,0.0,0.0,96,0.00,CLR,,0.00,WeatherDisplay:10.37,2013-09-20 07:27:00,
2013-09-20 00:32:00,54.7,53.6,29.68,NNE,31,0.0,0.0,96,0.00,CLR,,0.00,WeatherDisplay:10.37,2013-09-20 07:32:00,
2013-09-20 00:37:00,54.6,53.5,29.68,NNE,31,0.0,0.0,96,0.00,CLR,,0.00,WeatherDisplay:10.37,2013-09-20 07:37:00,
2013-09-20 00:42:00,54.2,53.1,29.68,NNE,31,0.0,0.0,96,0.00,CLR,,0.00,WeatherDisplay:10.37,2013-09-20 07:42:00,
2013-09-20 00:47:00,54.1,53.3,29.68,NNE,31,0.0,0.0,97,0.00,CLR,,0.00,WeatherDisplay:10.37,2013-09-20 07:47:00,
2013-09-20 00:52:00,53.9,53.1,29.68,NNE,31,0.0,0.0,97,0.00,CLR,,0.00,WeatherDisplay:10.37,2013-09-20 07:52:00,
2013-09-20 00:57:00,53.9,53.1,29.68,NNE,31,0.0,0.0,97,0.00,CLR,,0.00,WeatherDisplay:10.37,2013-09-20 07:57:00,
2013-09-20 01:02:00,53.8,53.0,29.68,NNE,31,0.0,0.0,97,0.00,CLR,,0.00,WeatherDisplay:10.37,2013-09-20 08:02:00,
2013-09-20 01:07:00,53.6,52.5,29.67,NNE,31,0.0,0.0,96,0.00,CLR,,0.00,WeatherDisplay:10.37,2013-09-20 08:07:00,
2013-09-20 01:12:00,53.4,52.6,29.67,NNE,31,0.0,0.0,97,0.00,CLR,,0.00,WeatherDisplay:10.37,2013-09-20 08:12:00,
2013-09-20 01:17:00,53.2,52.4,29.67,NNE,31,0.0,0.0,97,0.00,CLR,,0.00,WeatherDisplay:10.37,2013-09-20 08:17:00,
2013-09-20 01:22:00,53.1,52.3,29.67,NNE,31,0.0,0.0,97,0.00,CLR,,0.00,WeatherDisplay:10.37,2013-09-20 08:22:00,
2013-09-20 01:27:00,53.0,52.2,29.67,NNE,31,0.0,0.0,97,0.00,CLR,,0.00,WeatherDisplay:10.37,2013-09-20 08:27:00,
2013-09-20 01:32:00,52.9,51.8,29.67,NNE,31,0.0,0.0,96,0.00,CLR,,0.00,WeatherDisplay:10.37,2013-09-20 08:32:00,
2013-09-20 01:37:00,52.6,51.8,29.68,NNE,31,0.0,0.0,97,0.00,CLR,,0.00,WeatherDisplay:10.37,2013-09-20 08:37:00,
2013-09-20 01:42:00,52.4,51.6,29.68,NNE,31,0.0,0.0,97,0.00,CLR,,0.00,WeatherDisplay:10.37,2013-09-20 08:42:00,
2013-09-20 01:47:00,52.4,51.6,29.67,NNE,31,0.0,0.0,97,0.00,CLR,,0.00,WeatherDisplay:10.37,2013-09-20 08:47:00,
2013-09-20 01:53:00,52.4,51.6,29.67,NNE,31,0.0,0.0,97,0.00,CLR,,0.00,WeatherDisplay:10.37,2013-09-20 08:53:00,
2013-09-20 01:58:00,52.4,51.6,29.67,NNE,31,0.0,0.0,97,0.00,CLR,,0.00,WeatherDisplay:10.37,2013-09-20 08:58:00,
2013-09-20 02:03:00,52.4,51.6,29.67,NNE,31,0.0,0.0,97,0.00,CLR,,0.00,WeatherDisplay:10.37,2013-09-20 09:03:00,
2013-09-20 02:08:00,52.2,51.4,29.67,NNE,31,0.0,0.0,97,0.00,CLR,,0.00,WeatherDisplay:10.37,2013-09-20 09:08:00,
2013-09-20 02:13:00,52.3,51.5,29.67,NNE,31,0.0,0.0,97,0.00,CLR,,0.00,WeatherDisplay:10.37,2013-09-20 09:13:00,
2013-09-20 02:18:00,52.4,51.6,29.67,NNE,31,0.0,0.0,97,0.00,CLR,,0.00,WeatherDisplay:10.37,2013-09-20 09:18:00,
2013-09-20 02:23:00,52.6,51.8,29.67,NNE,31,0.0,0.0,97,0.00,CLR,,0.00,WeatherDisplay:10.37,2013-09-20 09:23:00,
2013-09-20 02:28:00,52.6,51.8,29.67,NNE,31,0.0,0.0,97,0.00,CLR,,0.00,WeatherDisplay:10.37,2013-09-20 09:28:00,
2013-09-20 02:33:00,52.2,51.4,29.67,NNE,31,0.0,0.0,97,0.00,CLR,,0.00,WeatherDisplay:10.37,2013-09-20 09:33:00,
2013-09-20 02:38:00,52.0,51.2,29.66,NNE,31,0.0,0.0,97,0.00,CLR,,0.00,WeatherDisplay:10.37,2013-09-20 09:38:00,
2013-09-20 02:43:00,52.0,51.2,29.66,NNE,31,0.0,0.0,97,0.00,CLR,,0.00,WeatherDisplay:10.37,2013-09-20 09:43:00,
2013-09-20 02:48:00,51.9,51.1,29.66,NNE,31,0.0,0.0,97,0.00,CLR,,0.00,WeatherDisplay:10.37,2013-09-20 09:48:00,
2013-09-20 02:53:00,51.8,51.0,29.66,NNE,31,0.0,0.0,97,0.00,CLR,,0.00,WeatherDisplay:10.37,2013-09-20 09:53:00,
2013-09-20 02:58:00,51.6,51.1,29.66,NNE,31,0.0,0.0,98,0.00,CLR,,0.00,WeatherDisplay:10.37,2013-09-20 09:58:00,
2013-09-20 03:03:00,51.4,50.9,29.66,NNE,31,0.0,0.0,98,0.00,CLR,,0.00,WeatherDisplay:10.37,2013-09-20 10:03:00,
2013-09-20 03:08:00,51.2,50.7,29.66,NNE,31,0.0,0.0,98,0.00,CLR,,0.00,WeatherDisplay:10.37,2013-09-20 10:08:00,
2013-09-20 03:13:00,51.1,50.6,29.66,NNE,31,0.0,0.0,98,0.00,CLR,,0.00,WeatherDisplay:10.37,2013-09-20 10:13:00,
2013-09-20 03:18:00,51.1,50.3,29.66,NNE,31,0.0,0.0,97,0.00,CLR,,0.00,WeatherDisplay:10.37,2013-09-20 10:18:00,
2013-09-20 03:23:00,51.0,50.2,29.66,NNE,31,0.0,0.0,97,0.00,CLR,,0.00,WeatherDisplay:10.37,2013-09-20 10:23:00,
2013-09-20 03:28:00,50.8,50.0,29.66,NNE,31,0.0,0.0,97,0.00,CLR,,0.00,WeatherDisplay:10.37,2013-09-20 10:28:00,
2013-09-20 03:33:00,50.4,49.6,29.66,NNE,31,0.0,0.0,97,0.00,CLR,,0.00,WeatherDisplay:10.37,2013-09-20 10:33:00,
2013-09-20 03:38:00,50.2,49.4,29.65,NNE,31,0.0,0.0,97,0.00,CLR,,0.00,WeatherDisplay:10.37,2013-09-20 10:38:00,
2013-09-20 03:43:00,50.1,49.3,29.65,NNE,31,0.0,0.0,97,0.00,CLR,,0.00,WeatherDisplay:10.37,2013-09-20 10:43:00,
2013-09-20 03:48:00,50.1,49.3,29.66,NNE,31,0.0,0.0,97,0.00,CLR,,0.00,WeatherDisplay:10.37,2013-09-20 10:48:00,
2013-09-20 03:53:00,50.1,49.6,29.65,NNE,31,0.0,0.0,98,0.00,CLR,,0.00,WeatherDisplay:10.37,2013-09-20 10:53:00,
2013-09-20 03:58:00,50.3,49.8,29.65,NNE,31,0.0,0.0,98,0.00,CLR,,0.00,WeatherDisplay:10.37,2013-09-20 10:58:00,
2013-09-20 04:03:00,50.3,49.8,29.65,NNE,31,0.0,0.0,98,0.00,CLR,,0.00,WeatherDisplay:10.37,2013-09-20 11:03:00,
2013-09-20 04:08:00,50.3,49.8,29.65,NNE,31,0.0,0.0,98,0.00,CLR,,0.00,WeatherDisplay:10.37,2013-09-20 11:08:00,
2013-09-20 04:13:00,50.6,50.1,29.65,NNE,31,0.0,0.0,98,0.00,CLR,,0.00,WeatherDisplay:10.37,2013-09-20 11:13:00,
2013-09-20 04:18:00,50.7,50.2,29.65,NNE,31,0.0,0.0,98,0.00,CLR,,0.00,WeatherDisplay:10.37,2013-09-20 11:18:00,
2013-09-20 04:23:00,50.6,50.1,29.65,NNE,31,0.0,0.0,98,0.00,CLR,,0.00,WeatherDisplay:10.37,2013-09-20 11:23:00,
2013-09-20 04:28:00,50.4,49.9,29.65,NNE,31,0.0,0.0,98,0.00,CLR,,0.00,WeatherDisplay:10.37,2013-09-20 11:28:00,
2013-09-20 04:33:00,50.4,49.9,29.65,NNE,31,0.0,0.0,98,0.00,CLR,,0.00,WeatherDisplay:10.37,2013-09-20 11:33:00,
2013-09-20 04:38:00,50.5,50.0,29.65,NNE,31,0.0,0.0,98,0.00,CLR,,0.00,WeatherDisplay:10.37,2013-09-20 11:38:00,
2013-09-20 04:43:00,50.4,49.9,29.65,NNE,31,0.0,0.0,98,0.00,CLR,,0.00,WeatherDisplay:10.37,2013-09-20 11:43:00,
2013-09-20 04:48:00,50.3,49.8,29.65,NNE,31,0.0,0.0,98,0.00,CLR,,0.00,WeatherDisplay:10.37,2013-09-20 11:48:00,
2013-09-20 04:53:00,50.3,49.8,29.65,NNE,31,0.0,0.0,98,0.00,CLR,,0.00,WeatherDisplay:10.37,2013-09-20 11:53:00,
2013-09-20 04:58:00,50.3,49.8,29.64,NNE,31,0.0,0.0,98,0.00,CLR,,0.00,WeatherDisplay:10.37,2013-09-20 11:58:00,
2013-09-20 05:03:00,50.3,49.8,29.64,NNE,31,0.0,0.0,98,0.00,CLR,,0.00,WeatherDisplay:10.37,2013-09-20 12:03:00,
2013-09-20 05:08:00,50.2,49.7,29.64,NNE,31,0.0,0.0,98,0.00,CLR,,0.00,WeatherDisplay:10.37,2013-09-20 12:08:00,
2013-09-20 05:13:00,50.2,49.7,29.63,NNE,31,0.0,0.0,98,0.00,CLR,,0.00,WeatherDisplay:10.37,2013-09-20 12:13:00,
2013-09-20 05:18:00,50.2,49.7,29.63,NNE,31,0.0,0.0,98,0.00,CLR,,0.00,WeatherDisplay:10.37,2013-09-20 12:18:00,
2013-09-20 05:23:00,50.2,49.7,29.63,NNE,31,0.0,0.0,98,0.00,CLR,,0.00,WeatherDisplay:10.37,2013-09-20 12:23:00,
2013-09-20 05:28:00,50.4,49.9,29.63,NNE,31,0.0,0.0,98,0.00,CLR,,0.00,WeatherDisplay:10.37,2013-09-20 12:28:00,
2013-09-20 05:33:00,50.5,50.0,29.63,NNE,31,0.0,0.0,98,0.00,CLR,,0.00,WeatherDisplay:10.37,2013-09-20 12:33:00,
2013-09-20 05:38:00,50.5,50.0,29.63,NNE,31,0.0,0.0,98,0.00,CLR,,0.00,WeatherDisplay:10.37,2013-09-20 12:38:00,
2013-09-20 05:43:00,50.5,50.0,29.63,NNE,31,0.0,0.0,98,0.00,CLR,,0.00,WeatherDisplay:10.37,2013-09-20 12:43:00,
2013-09-20 05:48:00,50.5,50.0,29.63,NNE,31,0.0,0.0,98,0.00,CLR,,0.00,WeatherDisplay:10.37,2013-09-20 12:48:00,
2013-09-20 05:53:00,50.4,49.9,29.63,NNE,31,0.0,0.0,98,0.00,CLR,,0.00,WeatherDisplay:10.37,2013-09-20 12:53:00,
2013-09-20 05:58:00,50.2,49.7,29.63,NNE,31,0.0,0.0,98,0.00,CLR,,0.00,WeatherDisplay:10.37,2013-09-20 12:58:00,
2013-09-20 06:03:00,50.0,49.5,29.62,NNE,31,0.0,0.0,98,0.00,CLR,,0.00,WeatherDisplay:10.37,2013-09-20 13:03:00,
2013-09-20 06:08:00,49.9,49.4,29.62,NNE,31,0.0,0.0,98,0.00,CLR,,0.00,WeatherDisplay:10.37,2013-09-20 13:08:00,
2013-09-20 06:13:00,49.8,49.3,29.63,NNE,31,0.0,0.0,98,0.00,CLR,,0.00,WeatherDisplay:10.37,2013-09-20 13:13:00,
2013-09-20 06:18:00,49.8,49.3,29.63,NNE,31,0.0,0.0,98,0.00,CLR,,0.00,WeatherDisplay:10.37,2013-09-20 13:18:00,
2013-09-20 06:23:00,49.5,49.0,29.63,NNE,31,0.0,0.0,98,0.00,CLR,,0.00,WeatherDisplay:10.37,2013-09-20 13:23:00,
2013-09-20 06:28:00,49.2,48.7,29.63,NNE,31,0.0,0.0,98,0.00,CLR,,0.00,WeatherDisplay:10.37,2013-09-20 13:28:00,
2013-09-20 06:33:00,49.0,48.5,29.62,NNE,31,0.0,0.0,98,0.00,CLR,,0.00,WeatherDisplay:10.37,2013-09-20 13:33:00,
2013-09-20 06:38:00,49.0,48.5,29.62,NNE,31,0.0,0.0,98,0.00,CLR,,0.00,WeatherDisplay:10.37,2013-09-20 13:38:00,
2013-09-20 06:43:00,49.2,48.7,29.62,NNE,31,0.0,0.0,98,0.00,CLR,,0.00,WeatherDisplay:10.37,2013-09-20 13:43:00,
2013-09-20 06:48:00,49.2,48.7,29.62,NNE,31,0.0,0.0,98,0.00,CLR,,0.00,WeatherDisplay:10.37,2013-09-20 13:48:00,
2013-09-20 06:53:00,49.0,48.5,29.62,NNE,31,0.0,0.0,98,0.00,CLR,,0.00,WeatherDisplay:10.37,2013-09-20 13:53:00,
2013-09-20 06:58:00,48.9,48.4,29.62,NNE,31,0.0,0.0,98,0.00,CLR,,0.00,WeatherDisplay:10.37,2013-09-20 13:58:00,
2013-09-20 07:03:00,48.8,48.3,29.62,NNE,31,0.0,0.0,98,0.00,CLR,,0.00,WeatherDisplay:10.37,2013-09-20 14:03:00,
2013-09-20 07:08:00,49.0,48.5,29.62,NNE,31,0.0,0.0,98,0.00,CLR,,0.00,WeatherDisplay:10.37,2013-09-20 14:08:00,
2013-09-20 07:13:00,48.9,48.4,29.62,NNE,31,0.0,0.0,98,0.00,CLR,,0.00,WeatherDisplay:10.37,2013-09-20 14:13:00,
2013-09-20 07:18:00,48.8,48.3,29.62,NNE,31,0.0,0.0,98,0.00,CLR,,0.00,WeatherDisplay:10.37,2013-09-20 14:18:00,
2013-09-20 07:23:00,48.8,48.3,29.62,NNE,31,0.0,0.0,98,0.00,CLR,,0.00,WeatherDisplay:10.37,2013-09-20 14:23:00,
2013-09-20 07:28:00,48.9,48.4,29.62,NNE,31,0.0,0.0,98,0.00,CLR,,0.00,WeatherDisplay:10.37,2013-09-20 14:28:00,
2013-09-20 07:33:00,49.3,48.8,29.62,NNE,31,0.0,0.0,98,0.00,CLR,,0.00,WeatherDisplay:10.37,2013-09-20 14:33:00,
2013-09-20 07:39:00,49.4,48.9,29.62,NNE,31,0.0,0.0,98,0.00,CLR,,0.00,WeatherDisplay:10.37,2013-09-20 14:39:00,
2013-09-20 07:44:00,49.4,48.9,29.62,NNE,31,0.0,0.0,98,0.00,CLR,,0.00,WeatherDisplay:10.37,2013-09-20 14:44:00,
2013-09-20 07:49:00,49.6,49.1,29.62,NNE,31,0.0,0.0,98,0.00,CLR,,0.00,WeatherDisplay:10.37,2013-09-20 14:49:00,
2013-09-20 07:54:00,49.8,49.3,29.62,NNE,31,0.0,0.0,98,0.00,CLR,,0.00,WeatherDisplay:10.37,2013-09-20 14:54:00,
2013-09-20 07:59:00,50.1,49.6,29.62,NNE,31,0.0,0.0,98,0.00,CLR,,0.00,WeatherDisplay:10.37,2013-09-20 14:59:00,
2013-09-20 08:04:00,50.4,49.9,29.62,NNE,31,0.0,0.0,98,0.00,CLR,,0.00,WeatherDisplay:10.37,2013-09-20 15:04:00,
2013-09-20 08:09:00,50.8,50.3,29.62,NNE,31,0.0,0.0,98,0.00,CLR,,0.00,WeatherDisplay:10.37,2013-09-20 15:09:00,
2013-09-20 08:14:00,51.3,50.8,29.62,NNE,31,0.0,0.0,98,0.00,CLR,,0.00,WeatherDisplay:10.37,2013-09-20 15:14:00,
2013-09-20 08:19:00,51.9,51.4,29.61,NNE,31,0.0,0.0,98,0.00,CLR,,0.00,WeatherDisplay:10.37,2013-09-20 15:19:00,
2013-09-20 08:24:00,52.2,51.7,29.61,NNE,31,0.0,0.0,98,0.00,CLR,,0.00,WeatherDisplay:10.37,2013-09-20 15:24:00,
2013-09-20 08:29:00,52.7,52.2,29.61,NNE,31,0.0,0.0,98,0.00,CLR,,0.00,WeatherDisplay:10.37,2013-09-20 15:29:00,
2013-09-20 08:34:00,52.9,52.4,29.61,NNE,31,0.0,0.0,98,0.00,CLR,,0.00,WeatherDisplay:10.37,2013-09-20 15:34:00,
2013-09-20 08:39:00,53.2,52.7,29.61,NNE,31,0.0,0.0,98,0.00,CLR,,0.00,WeatherDisplay:10.37,2013-09-20 15:39:00,
2013-09-20 08:44:00,53.6,52.8,29.61,NNE,31,0.0,0.0,97,0.00,CLR,,0.00,WeatherDisplay:10.37,2013-09-20 15:44:00,
2013-09-20 08:49:00,54.1,53.3,29.61,SSE,167,0.0,0.0,97,0.00,CLR,,0.00,WeatherDisplay:10.37,2013-09-20 15:49:00,
2013-09-20 08:54:00,54.6,53.8,29.61,ENE,68,0.0,0.0,97,0.00,CLR,,0.00,WeatherDisplay:10.37,2013-09-20 15:54:00,
2013-09-20 08:59:00,55.5,54.7,29.61,ENE,68,0.0,0.0,97,0.00,CLR,,0.00,WeatherDisplay:10.37,2013-09-20 15:59:00,
2013-09-20 09:04:00,56.1,55.0,29.60,South,182,0.0,0.0,96,0.00,CLR,,0.00,WeatherDisplay:10.37,2013-09-20 16:04:00,
2013-09-20 09:09:00,56.7,55.3,29.60,South,182,0.0,0.0,95,0.00,CLR,,0.00,WeatherDisplay:10.37,2013-09-20 16:09:00,
2013-09-20 09:14:00,57.0,55.3,29.60,ENE,62,3.5,3.5,94,0.00,CLR,,0.00,WeatherDisplay:10.37,2013-09-20 16:14:00,
2013-09-20 09:19:00,57.2,54.6,29.60,SSE,164,3.5,3.5,91,0.00,CLR,,0.00,WeatherDisplay:10.37,2013-09-20 16:19:00,
2013-09-20 09:24:00,57.6,55.3,29.60,SSE,164,4.6,4.6,92,0.00,CLR,,0.00,WeatherDisplay:10.37,2013-09-20 16:24:00,
2013-09-20 09:29:00,58.2,55.3,29.60,SSE,164,3.5,3.5,90,0.00,CLR,,0.00,WeatherDisplay:10.37,2013-09-20 16:29:00,
2013-09-20 09:34:00,58.9,56.0,29.60,WNW,291,2.3,2.3,90,0.00,CLR,,0.00,WeatherDisplay:10.37,2013-09-20 16:34:00,
2013-09-20 09:39:00,59.2,56.0,29.60,West,260,4.6,4.6,89,0.00,CLR,,0.00,WeatherDisplay:10.37,2013-09-20 16:39:00,
2013-09-20 09:44:00,59.4,56.5,29.60,ESE,103,3.5,3.5,90,0.00,CLR,,0.00,WeatherDisplay:10.37,2013-09-20 16:44:00,
2013-09-20 09:49:00,59.8,55.9,29.60,SE,130,4.6,4.6,87,0.00,CLR,,0.00,WeatherDisplay:10.37,2013-09-20 16:49:00,
2013-09-20 09:54:00,59.5,55.9,29.60,ESE,113,2.8,2.8,88,0.00,CLR,,0.00,WeatherDisplay:10.37,2013-09-20 16:54:00,
2013-09-20 09:59:00,59.4,55.8,29.60,SSW,195,3.5,3.5,88,0.00,CLR,,0.00,WeatherDisplay:10.37,2013-09-20 16:59:00,
2013-09-20 10:04:00,59.3,55.7,29.60,SSE,157,4.6,4.6,88,0.00,CLR,,0.00,WeatherDisplay:10.37,2013-09-20 17:04:00,
2013-09-20 10:09:00,59.5,55.9,29.60,SE,134,4.6,4.6,88,0.00,CLR,,0.00,WeatherDisplay:10.37,2013-09-20 17:09:00,
2013-09-20 10:14:00,59.7,55.8,29.60,SE,128,4.6,4.6,87,0.00,CLR,,0.00,WeatherDisplay:10.37,2013-09-20 17:14:00,
2013-09-20 10:19:00,59.9,56.0,29.59,SSE,152,4.1,4.1,87,0.00,CLR,,0.00,WeatherDisplay:10.37,2013-09-20 17:19:00,
2013-09-20 10:24:00,60.4,56.2,29.59,SE,126,2.3,2.3,86,0.00,CLR,,0.00,WeatherDisplay:10.37,2013-09-20 17:24:00,
2013-09-20 10:29:00,60.5,56.0,29.59,ESE,107,5.8,5.8,85,0.00,CLR,,0.00,WeatherDisplay:10.37,2013-09-20 17:29:00,
2013-09-20 10:34:00,60.8,56.3,29.60,SSE,155,3.5,3.5,85,0.00,CLR,,0.00,WeatherDisplay:10.37,2013-09-20 17:34:00,
2013-09-20 10:39:00,61.7,56.8,29.59,South,178,3.5,3.5,84,0.00,CLR,,0.00,WeatherDisplay:10.37,2013-09-20 17:39:00,
2013-09-20 10:44:00,62.5,56.6,29.60,SSE,168,5.1,5.1,81,0.00,CLR,,0.00,WeatherDisplay:10.37,2013-09-20 17:44:00,
2013-09-20 10:49:00,63.0,57.4,29.59,SW,224,4.6,4.6,82,0.00,CLR,,0.00,WeatherDisplay:10.37,2013-09-20 17:49:00,
2013-09-20 10:54:00,64.0,57.0,29.59,SSW,209,6.9,6.9,78,0.00,CLR,,0.00,WeatherDisplay:10.37,2013-09-20 17:54:00,
2013-09-20 10:59:00,64.4,57.7,29.59,SSW,198,2.3,2.3,79,0.00,CLR,,0.00,WeatherDisplay:10.37,2013-09-20 17:59:00,
2013-09-20 11:04:00,65.1,57.7,29.59,WSW,251,3.5,3.5,77,0.00,CLR,,0.00,WeatherDisplay:10.37,2013-09-20 18:04:00,
2013-09-20 11:09:00,66.1,58.3,29.59,South,175,4.6,4.6,76,0.00,CLR,,0.00,WeatherDisplay:10.37,2013-09-20 18:09:00,
2013-09-20 11:14:00,66.4,57.1,29.59,South,174,6.9,6.9,72,0.00,CLR,,0.00,WeatherDisplay:10.37,2013-09-20 18:14:00,
2013-09-20 11:19:00,66.8,57.5,29.59,SSW,196,5.8,5.8,72,0.00,CLR,,0.00,WeatherDisplay:10.37,2013-09-20 18:19:00,
2013-09-20 11:24:00,67.3,57.6,29.59,SSE,160,8.1,8.1,71,0.00,CLR,,0.00,WeatherDisplay:10.37,2013-09-20 18:24:00,
2013-09-20 11:30:00,67.7,57.2,29.59,South,186,8.1,8.1,69,0.00,CLR,,0.00,WeatherDisplay:10.37,2013-09-20 18:30:00,
2013-09-20 11:35:00,67.9,58.1,29.59,SE,144,5.8,5.8,71,0.00,CLR,,0.00,WeatherDisplay:10.37,2013-09-20 18:35:00,
2013-09-20 12:52:00,71.0,59.9,29.60,NNW,337,13.8,13.8,68,0.00,CLR,,0.00,WeatherDisplay:10.37,2013-09-20 19:52:00,
2013-09-20 12:57:00,71.0,59.5,29.60,WSW,244,4.6,4.6,67,0.00,CLR,,0.00,WeatherDisplay:10.37,2013-09-20 19:57:00,
2013-09-20 13:02:00,70.3,59.2,29.60,SW,230,4.6,4.6,68,0.00,CLR,,0.00,WeatherDisplay:10.37,2013-09-20 20:02:00,
2013-09-20 13:07:00,69.8,59.2,29.60,WNW,289,3.5,3.5,69,0.00,CLR,,0.00,WeatherDisplay:10.37,2013-09-20 20:07:00,
2013-09-20 13:12:00,69.4,59.2,29.60,WSW,243,4.6,4.6,70,0.00,CLR,,0.00,WeatherDisplay:10.37,2013-09-20 20:12:00,
2013-09-20 13:17:00,69.4,59.6,29.60,SW,216,3.5,3.5,71,0.00,CLR,,0.00,WeatherDisplay:10.37,2013-09-20 20:17:00,
2013-09-20 13:22:00,69.1,59.7,29.60,West,274,2.3,2.3,72,0.00,CLR,,0.00,WeatherDisplay:10.37,2013-09-20 20:22:00,
2013-09-20 13:27:00,69.0,59.6,29.60,SE,130,2.3,2.3,72,0.00,CLR,,0.00,WeatherDisplay:10.37,2013-09-20 20:27:00,
2013-09-20 13:32:00,68.8,59.4,29.59,SSW,192,3.5,3.5,72,0.00,CLR,,0.00,WeatherDisplay:10.37,2013-09-20 20:32:00,
2013-09-20 13:37:00,68.3,59.3,29.59,SSE,167,2.3,2.3,73,0.00,CLR,,0.00,WeatherDisplay:10.37,2013-09-20 20:37:00,
2013-09-20 13:42:00,68.3,59.3,29.59,South,179,1.2,1.2,73,0.00,CLR,,0.00,WeatherDisplay:10.37,2013-09-20 20:42:00,
2013-09-20 13:47:00,68.4,58.2,29.58,SW,232,3.5,3.5,70,0.00,CLR,,0.00,WeatherDisplay:10.37,2013-09-20 20:47:00,
2013-09-20 13:52:00,68.4,58.2,29.58,South,189,2.3,2.3,70,0.00,CLR,,0.00,WeatherDisplay:10.37,2013-09-20 20:52:00,
2013-09-20 13:57:00,68.5,58.7,29.58,ESE,123,3.9,3.9,71,0.00,CLR,,0.00,WeatherDisplay:10.37,2013-09-20 20:57:00,
2013-09-20 14:02:00,68.4,59.0,29.58,SSW,198,4.6,4.6,72,0.00,CLR,,0.00,WeatherDisplay:10.37,2013-09-20 21:02:00,
2013-09-20 14:07:00,68.5,59.1,29.58,SE,128,5.8,5.8,72,0.00,CLR,,0.00,WeatherDisplay:10.37,2013-09-20 21:07:00,
2013-09-20 14:12:00,68.6,60.0,29.59,SSW,200,3.1,3.1,74,0.00,CLR,,0.00,WeatherDisplay:10.37,2013-09-20 21:12:00,
2013-09-20 14:17:00,68.5,58.7,29.59,ESE,103,8.2,8.2,71,0.00,CLR,,0.00,WeatherDisplay:10.37,2013-09-20 21:17:00,
2013-09-20 14:22:00,68.4,59.0,29.58,SW,215,5.8,5.8,72,0.00,CLR,,0.00,WeatherDisplay:10.37,2013-09-20 21:22:00,
2013-09-20 14:27:00,68.5,58.7,29.59,SSE,147,5.8,5.8,71,0.00,CLR,,0.00,WeatherDisplay:10.37,2013-09-20 21:27:00,
2013-09-20 14:32:00,68.5,59.1,29.59,SSW,202,4.2,4.2,72,0.00,CLR,,0.00,WeatherDisplay:10.37,2013-09-20 21:32:00,
2013-09-20 14:37:00,68.6,58.8,29.59,South,171,3.9,3.9,71,0.00,CLR,,0.00,WeatherDisplay:10.37,2013-09-20 21:37:00,
2013-09-20 14:42:00,68.5,58.7,29.59,South,171,4.6,4.6,71,0.00,CLR,,0.00,WeatherDisplay:10.37,2013-09-20 21:42:00,
2013-09-20 14:47:00,68.4,59.8,29.59,ESE,120,0.0,0.0,74,0.00,CLR,,0.00,WeatherDisplay:10.37,2013-09-20 21:47:00,
2013-09-20 14:52:00,68.4,59.4,29.59,SE,131,1.4,1.4,73,0.00,CLR,,0.00,WeatherDisplay:10.37,2013-09-20 21:52:00,
2013-09-20 14:57:00,68.4,60.2,29.59,WSW,237,1.2,1.2,75,0.00,CLR,,0.00,WeatherDisplay:10.37,2013-09-20 21:57:00,
2013-09-20 15:02:00,68.5,60.3,29.59,SW,216,1.2,1.2,75,0.00,CLR,,0.00,WeatherDisplay:10.37,2013-09-20 22:02:00,
2013-09-20 15:07:00,68.5,60.3,29.59,SW,227,2.3,2.3,75,0.00,CLR,,0.00,WeatherDisplay:10.37,2013-09-20 22:07:00,
2013-09-20 15:12:00,68.5,59.9,29.59,SW,233,2.3,2.3,74,0.00,CLR,,0.00,WeatherDisplay:10.37,2013-09-20 22:12:00,
2013-09-20 15:17:00,68.1,58.7,29.59,SE,138,6.9,6.9,72,0.00,CLR,,0.00,WeatherDisplay:10.37,2013-09-20 22:17:00,
2013-09-20 15:22:00,67.7,59.9,29.59,SSE,167,2.3,2.7,76,0.00,CLR,,0.00,WeatherDisplay:10.37,2013-09-20 22:22:00,
2013-09-20 15:27:00,66.8,60.1,29.59,SE,145,6.9,6.9,79,0.01,RA,,0.01,WeatherDisplay:10.37,2013-09-20 22:27:00,
2013-09-20 15:32:00,66.1,59.4,29.59,SSE,167,4.6,4.6,79,0.01,RA,,0.01,WeatherDisplay:10.37,2013-09-20 22:32:00,
2013-09-20 15:37:00,65.4,59.8,29.59,SSW,206,5.8,5.8,82,0.01,CLR,,0.01,WeatherDisplay:10.37,2013-09-20 22:37:00,
2013-09-20 15:42:00,65.1,60.1,29.59,South,175,3.5,3.5,84,0.02,RA,,0.02,WeatherDisplay:10.37,2013-09-20 22:42:00,
2013-09-20 15:47:00,64.6,60.3,29.60,South,178,2.3,2.3,86,0.02,RA,,0.02,WeatherDisplay:10.37,2013-09-20 22:47:00,
2013-09-20 15:52:00,64.3,60.7,29.61,SSW,208,5.8,5.8,88,0.03,RA,,0.03,WeatherDisplay:10.37,2013-09-20 22:52:00,
2013-09-20 15:57:00,63.9,60.3,29.61,SSE,165,6.9,6.9,88,0.04,RA,,0.05,WeatherDisplay:10.37,2013-09-20 22:57:00,
2013-09-20 16:02:00,63.3,60.3,29.61,SSE,148,6.9,6.9,90,0.07,RA,,0.08,WeatherDisplay:10.37,2013-09-20 23:02:00,
2013-09-20 16:07:00,62.7,60.3,29.61,SSE,157,4.6,4.6,92,0.09,RA,,0.09,WeatherDisplay:10.37,2013-09-20 23:07:00,
2013-09-20 16:12:00,62.0,59.6,29.61,SE,127,9.2,9.2,92,0.10,RA,,0.10,WeatherDisplay:10.37,2013-09-20 23:12:00,
2013-09-20 16:17:00,61.8,59.5,29.61,SE,144,12.7,12.7,92,0.11,RA,,0.11,WeatherDisplay:10.37,2013-09-20 23:17:00,
2013-09-20 16:22:00,61.7,59.7,29.61,SSW,203,3.5,3.5,93,0.11,RA,,0.11,WeatherDisplay:10.37,2013-09-20 23:22:00,
2013-09-20 16:27:00,61.6,59.9,29.61,West,260,4.6,4.6,94,0.10,,,0.11,WeatherDisplay:10.37,2013-09-20 23:27:00,
2013-09-20 16:32:00,61.5,59.8,29.61,SE,127,3.5,3.5,94,0.10,CLR,,0.11,WeatherDisplay:10.37,2013-09-20 23:32:00,
2013-09-20 16:37:00,61.5,60.1,29.61,SE,144,0.0,0.0,95,0.11,RA,,0.12,WeatherDisplay:10.37,2013-09-20 23:37:00,
2013-09-20 16:42:00,61.4,60.0,29.61,SE,130,5.8,5.8,95,0.10,RA,,0.12,WeatherDisplay:10.37,2013-09-20 23:42:00,
2013-09-20 16:47:00,61.4,60.0,29.61,SSE,155,5.0,5.0,95,0.11,RA,,0.13,WeatherDisplay:10.37,2013-09-20 23:47:00,
2013-09-20 16:52:00,61.2,59.8,29.61,SW,216,4.6,4.6,95,0.10,RA,,0.13,WeatherDisplay:10.37,2013-09-20 23:52:00,
2013-09-20 16:57:00,61.3,60.2,29.60,South,174,4.6,4.6,96,0.09,RA,,0.14,WeatherDisplay:10.37,2013-09-20 23:57:00,
2013-09-20 17:02:00,61.3,59.9,29.60,SE,144,6.9,6.9,95,0.06,RA,,0.14,WeatherDisplay:10.37,2013-09-21 00:02:00,
2013-09-20 17:07:00,61.1,59.7,29.59,SSW,212,3.5,3.5,95,0.06,RA,,0.15,WeatherDisplay:10.37,2013-09-21 00:07:00,
2013-09-20 17:12:00,61.0,59.6,29.59,SSW,210,4.6,4.6,95,0.06,RA,,0.16,WeatherDisplay:10.37,2013-09-21 00:12:00,
2013-09-20 17:17:00,60.9,59.8,29.59,SE,131,2.3,2.3,96,0.05,RA,,0.16,WeatherDisplay:10.37,2013-09-21 00:17:00,
2013-09-20 17:22:00,60.7,59.6,29.60,SE,131,0.0,0.0,96,0.05,CLR,,0.16,WeatherDisplay:10.37,2013-09-21 00:22:00,
2013-09-20 17:27:00,60.6,59.5,29.59,SSW,193,1.7,1.7,96,0.05,CLR,,0.16,WeatherDisplay:10.37,2013-09-21 00:27:00,
2013-09-20 17:32:00,60.6,59.5,29.58,SSW,212,3.5,3.5,96,0.05,CLR,,0.16,WeatherDisplay:10.37,2013-09-21 00:32:00,
2013-09-20 17:37:00,60.8,59.4,29.58,West,260,0.0,0.0,95,0.04,CLR,,0.16,WeatherDisplay:10.37,2013-09-21 00:37:00,
2013-09-20 17:42:00,60.9,59.5,29.58,West,260,0.0,0.0,95,0.04,CLR,,0.16,WeatherDisplay:10.37,2013-09-21 00:42:00,
2013-09-20 17:47:00,60.9,59.8,29.58,West,260,0.0,0.0,96,0.03,CLR,,0.16,WeatherDisplay:10.37,2013-09-21 00:47:00,
2013-09-20 17:52:00,60.9,59.5,29.59,SSE,162,6.9,6.9,95,0.03,CLR,,0.16,WeatherDisplay:10.37,2013-09-21 00:52:00,
2013-09-20 17:57:00,61.0,59.6,29.58,SW,223,5.8,5.8,95,0.02,CLR,,0.16,WeatherDisplay:10.37,2013-09-21 00:57:00,
2013-09-20 18:02:00,60.9,59.5,29.58,South,171,5.8,5.8,95,0.02,CLR,,0.16,WeatherDisplay:10.37,2013-09-21 01:02:00,
2013-09-20 18:07:00,60.8,59.4,29.58,South,184,3.5,3.5,95,0.01,CLR,,0.16,WeatherDisplay:10.37,2013-09-21 01:07:00,
2013-09-20 18:12:00,60.8,59.4,29.58,South,191,0.0,0.0,95,0.00,CLR,,0.16,WeatherDisplay:10.37,2013-09-21 01:12:00,
2013-09-20 18:17:00,60.8,59.4,29.58,ESE,106,0.0,0.0,95,0.00,CLR,,0.16,WeatherDisplay:10.37,2013-09-21 01:17:00,
2013-09-20 18:22:00,60.6,59.2,29.58,East,88,0.0,0.0,95,0.00,CLR,,0.16,WeatherDisplay:10.37,2013-09-21 01:22:00,
2013-09-20 18:27:00,60.6,59.5,29.58,SE,126,4.6,4.6,96,0.00,CLR,,0.16,WeatherDisplay:10.37,2013-09-21 01:27:00,
2013-09-20 18:32:00,60.5,59.4,29.58,SSE,155,4.6,4.6,96,0.00,CLR,,0.16,WeatherDisplay:10.37,2013-09-21 01:32:00,
2013-09-20 18:37:00,60.5,59.4,29.58,South,172,0.0,0.0,96,0.00,CLR,,0.16,WeatherDisplay:10.37,2013-09-21 01:37:00,
2013-09-20 18:42:00,60.5,59.4,29.57,SSE,167,0.0,0.0,96,0.00,CLR,,0.16,WeatherDisplay:10.37,2013-09-21 01:42:00,
2013-09-20 18:47:00,60.4,59.3,29.57,ESE,114,0.0,0.0,96,0.00,CLR,,0.16,WeatherDisplay:10.37,2013-09-21 01:47:00,
2013-09-20 18:52:00,60.3,59.2,29.57,SE,130,0.0,0.0,96,0.00,CLR,,0.16,WeatherDisplay:10.37,2013-09-21 01:52:00,
2013-09-20 18:57:00,60.2,59.1,29.57,ESE,121,3.5,3.5,96,0.00,CLR,,0.16,WeatherDisplay:10.37,2013-09-21 01:57:00,
2013-09-20 19:03:00,60.1,59.0,29.58,SE,136,0.0,0.0,96,0.00,CLR,,0.16,WeatherDisplay:10.37,2013-09-21 02:03:00,
2013-09-20 19:08:00,60.1,59.0,29.58,ESE,103,0.0,0.0,96,0.00,CLR,,0.16,WeatherDisplay:10.37,2013-09-21 02:08:00,
2013-09-20 19:13:00,60.1,59.0,29.58,ESE,103,0.0,0.0,96,0.00,CLR,,0.16,WeatherDisplay:10.37,2013-09-21 02:13:00,
2013-09-20 19:18:00,60.1,59.0,29.58,ESE,103,0.0,0.0,96,0.00,CLR,,0.16,WeatherDisplay:10.37,2013-09-21 02:18:00,
2013-09-20 19:23:00,60.0,58.9,29.58,ESE,103,0.0,0.0,96,0.00,CLR,,0.16,WeatherDisplay:10.37,2013-09-21 02:23:00,
2013-09-20 19:28:00,59.9,58.8,29.58,ESE,103,0.0,0.0,96,0.00,CLR,,0.16,WeatherDisplay:10.37,2013-09-21 02:28:00,
2013-09-20 19:33:00,59.7,58.6,29.58,ESE,103,0.0,0.0,96,0.00,CLR,,0.16,WeatherDisplay:10.37,2013-09-21 02:33:00,
2013-09-20 19:38:00,59.5,58.4,29.58,ESE,103,0.0,0.0,96,0.00,CLR,,0.16,WeatherDisplay:10.37,2013-09-21 02:38:00,
2013-09-20 19:43:00,59.5,58.4,29.58,ESE,103,0.0,0.0,96,0.00,CLR,,0.16,WeatherDisplay:10.37,2013-09-21 02:43:00,
2013-09-20 19:48:00,59.5,58.4,29.58,South,188,1.2,0.0,96,0.00,CLR,,0.16,WeatherDisplay:10.37,2013-09-21 02:48:00,
2013-09-20 19:53:00,59.4,58.3,29.59,South,174,0.0,0.0,96,0.00,CLR,,0.16,WeatherDisplay:10.37,2013-09-21 02:53:00,
2013-09-20 19:58:00,59.3,58.2,29.58,SSE,150,3.5,3.5,96,0.00,CLR,,0.16,WeatherDisplay:10.37,2013-09-21 02:58:00,
2013-09-20 20:03:00,59.3,58.2,29.59,SSE,150,0.0,0.0,96,0.00,CLR,,0.16,WeatherDisplay:10.37,2013-09-21 03:03:00,
2013-09-20 20:08:00,59.4,58.3,29.59,SE,143,0.0,0.0,96,0.00,CLR,,0.16,WeatherDisplay:10.37,2013-09-21 03:08:00,
2013-09-20 20:13:00,59.4,58.3,29.59,SE,143,0.0,0.0,96,0.00,CLR,,0.16,WeatherDisplay:10.37,2013-09-21 03:13:00,
2013-09-20 20:18:00,59.5,58.4,29.59,SSW,202,2.3,2.3,96,0.00,CLR,,0.16,WeatherDisplay:10.37,2013-09-21 03:18:00,
2013-09-20 20:23:00,59.5,58.4,29.59,ESE,119,1.2,1.2,96,0.01,RA,,0.17,WeatherDisplay:10.37,2013-09-21 03:23:00,
2013-09-20 20:28:00,59.5,58.4,29.59,South,172,0.0,0.0,96,0.02,RA,,0.18,WeatherDisplay:10.37,2013-09-21 03:28:00,
2013-09-20 20:33:00,59.5,58.4,29.59,SE,143,2.3,2.3,96,0.02,RA,,0.18,WeatherDisplay:10.37,2013-09-21 03:33:00,
2013-09-20 20:38:00,59.5,58.4,29.59,SE,143,0.0,0.0,96,0.02,CLR,,0.18,WeatherDisplay:10.37,2013-09-21 03:38:00,
2013-09-20 20:43:00,59.5,58.4,29.59,SE,143,0.0,0.0,96,0.02,CLR,,0.18,WeatherDisplay:10.37,2013-09-21 03:43:00,
2013-09-20 20:48:00,59.4,58.5,29.59,ESE,116,0.0,0.0,97,0.02,CLR,,0.18,WeatherDisplay:10.37,2013-09-21 03:48:00,
2013-09-20 20:53:00,59.5,58.6,29.59,South,179,2.3,2.3,97,0.02,CLR,,0.18,WeatherDisplay:10.37,2013-09-21 03:53:00,
2013-09-20 20:58:00,59.4,58.5,29.59,South,179,0.0,0.0,97,0.02,CLR,,0.18,WeatherDisplay:10.37,2013-09-21 03:58:00,
2013-09-20 21:01:00,59.5,58.6,29.59,South,179,0.0,0.0,97,0.02,CLR,,0.18,WeatherDisplay:10.37,2013-09-21 04:01:00,
2013-09-20 21:06:00,59.5,58.6,29.59,South,179,0.0,0.0,97,0.02,CLR,,0.18,WeatherDisplay:10.37,2013-09-21 04:06:00,
2013-09-20 21:11:00,59.6,58.7,29.60,SW,236,2.3,2.3,97,0.02,CLR,,0.18,WeatherDisplay:10.37,2013-09-21 04:11:00,
2013-09-20 21:16:00,59.6,58.7,29.60,SW,236,0.0,0.0,97,0.02,CLR,,0.18,WeatherDisplay:10.37,2013-09-21 04:16:00,
2013-09-20 21:21:00,59.6,58.7,29.60,SW,236,0.0,0.0,97,0.02,CLR,,0.18,WeatherDisplay:10.37,2013-09-21 04:21:00,
2013-09-20 21:26:00,59.4,58.5,29.60,SW,236,0.0,0.0,97,0.00,CLR,,0.18,WeatherDisplay:10.37,2013-09-21 04:26:00,
2013-09-20 21:31:00,59.4,58.3,29.60,SW,236,0.0,0.0,96,0.00,CLR,,0.18,WeatherDisplay:10.37,2013-09-21 04:31:00,
2013-09-20 21:40:00,59.2,58.0,29.60,SW,236,0.0,0.0,96,0.00,CLR,CLR,0.18,WeatherDisplay:10.37,2013-09-21 04:40:00,
2013-09-20 21:45:00,59.0,57.9,29.60,SW,236,0.0,0.0,96,0.00,CLR,CLR,0.18,WeatherDisplay:10.37,2013-09-21 04:45:00,
2013-09-20 21:50:00,58.9,58.1,29.60,SW,236,0.0,0.0,97,0.00,CLR,,0.18,WeatherDisplay:10.37,2013-09-21 04:50:00,
2013-09-20 21:55:00,58.7,57.9,29.60,SW,236,0.0,0.0,97,0.00,CLR,,0.18,WeatherDisplay:10.37,2013-09-21 04:55:00,
2013-09-20 22:00:00,58.4,57.6,29.60,SW,236,0.0,0.0,97,0.00,CLR,,0.18,WeatherDisplay:10.37,2013-09-21 05:00:00,
2013-09-20 22:05:00,58.3,57.5,29.60,SW,236,0.0,0.0,97,0.00,CLR,,0.18,WeatherDisplay:10.37,2013-09-21 05:05:00,
2013-09-20 22:10:00,58.3,57.5,29.60,SW,236,0.0,0.0,97,0.00,CLR,,0.18,WeatherDisplay:10.37,2013-09-21 05:10:00,
2013-09-20 22:15:00,58.3,57.5,29.60,SW,236,0.0,0.0,97,0.00,CLR,,0.18,WeatherDisplay:10.37,2013-09-21 05:15:00,
2013-09-20 22:20:00,58.1,57.3,29.60,SW,236,0.0,0.0,97,0.00,CLR,,0.18,WeatherDisplay:10.37,2013-09-21 05:20:00,
2013-09-20 22:25:00,58.0,57.2,29.60,SW,236,0.0,0.0,97,0.00,CLR,,0.18,WeatherDisplay:10.37,2013-09-21 05:25:00,
2013-09-20 22:30:00,57.9,57.1,29.60,SW,236,0.0,0.0,97,0.00,CLR,,0.18,WeatherDisplay:10.37,2013-09-21 05:30:00,
2013-09-20 22:35:00,57.8,57.0,29.60,SW,236,0.0,0.0,97,0.00,CLR,,0.18,WeatherDisplay:10.37,2013-09-21 05:35:00,
2013-09-20 22:40:00,57.5,56.7,29.60,SW,236,0.0,0.0,97,0.00,CLR,,0.18,WeatherDisplay:10.37,2013-09-21 05:40:00,
2013-09-20 22:45:00,57.6,57.0,29.60,SW,236,0.0,0.0,98,0.00,CLR,,0.18,WeatherDisplay:10.37,2013-09-21 05:45:00,
2013-09-20 22:50:00,57.8,57.2,29.60,SW,236,0.0,0.0,98,0.00,CLR,,0.18,WeatherDisplay:10.37,2013-09-21 05:50:00,
2013-09-20 22:55:00,58.0,57.4,29.60,SW,236,0.0,0.0,98,0.00,CLR,,0.18,WeatherDisplay:10.37,2013-09-21 05:55:00,
2013-09-20 23:00:00,58.1,57.5,29.60,SW,236,0.0,0.0,98,0.00,CLR,,0.18,WeatherDisplay:10.37,2013-09-21 06:00:00,
2013-09-20 23:05:00,58.2,57.6,29.59,SW,236,0.0,0.0,98,0.00,CLR,,0.18,WeatherDisplay:10.37,2013-09-21 06:05:00,
2013-09-20 23:10:00,58.2,57.6,29.59,SW,236,0.0,0.0,98,0.00,CLR,,0.18,WeatherDisplay:10.37,2013-09-21 06:10:00,
2013-09-20 23:15:00,58.1,57.5,29.59,SW,236,0.0,0.0,98,0.00,CLR,,0.18,WeatherDisplay:10.37,2013-09-21 06:15:00,
2013-09-20 23:21:00,58.0,57.4,29.59,SW,236,0.0,0.0,98,0.00,CLR,,0.18,WeatherDisplay:10.37,2013-09-21 06:21:00,
2013-09-20 23:26:00,58.1,57.5,29.59,SW,236,0.0,0.0,98,0.00,CLR,,0.18,WeatherDisplay:10.37,2013-09-21 06:26:00,
2013-09-20 23:31:00,58.1,57.5,29.59,SW,236,0.0,0.0,98,0.00,CLR,,0.18,WeatherDisplay:10.37,2013-09-21 06:31:00,
2013-09-20 23:36:00,58.2,57.6,29.59,SW,236,0.0,0.0,98,0.00,CLR,,0.18,WeatherDisplay:10.37,2013-09-21 06:36:00,
2013-09-20 23:41:00,58.1,57.5,29.59,SW,236,0.0,0.0,98,0.00,CLR,,0.18,WeatherDisplay:10.37,2013-09-21 06:41:00,
2013-09-20 23:46:00,58.1,57.5,29.60,SW,236,0.0,0.0,98,0.00,CLR,,0.18,WeatherDisplay:10.37,2013-09-21 06:46:00,
2013-09-20 23:51:00,58.0,57.4,29.60,SW,236,0.0,0.0,98,0.00,CLR,,0.18,WeatherDisplay:10.37,2013-09-21 06:51:00,
2013-09-20 23:56:00,57.9,57.3,29.60,SW,236,0.0,0.0,98,0.00,CLR,,0.18,WeatherDisplay:10.37,2013-09-21 06:56:00,